Baltimore, MD

7:56 AM EST on January 16, 2017 (GMT -0500)
Maryland Science Center

Weather History for KDMH - October, 2012

Change the Weather History Date:

Thursday, October 18, 2012

  Actual Average Record
Temperature  
Mean Temperature 64 °F 59 °F  
Max Temperature 72 °F 68 °F 84 °F (2016)
Min Temperature 55 °F 51 °F 40 °F (2015)
Degree Days  
Heating Degree Days 2 7  
Month to date heating degree days 82  
Since 1 July heating degree days 100  
Cooling Degree Days 0 1  
Month to date cooling degree days 33  
Year to date cooling degree days 1658  
Growing Degree Days 14 (Base 50)    
Moisture  
Dew Point 53 °F    
Average Humidity 67    
Maximum Humidity 84    
Minimum Humidity 49    
Precipitation  
Precipitation 0.00 in 0.10 in 0.13 in (2000)
Month to date precipitation 1.91  
Year to date precipitation 33.37  
Sea Level Pressure  
Sea Level Pressure 29.91 in    
Wind  
Wind Speed - (North)    
Max Wind Speed -    
Max Gust Speed -    
T = Trace of Precipitation, MM = Missing Value Source: NWS Daily Summary

Daily Weather History Graph

Daily Weather History Graph

Search for Another Location

Airport or City:

Trip Planner

Search our weather history database for the weather conditions in past years. The results will help you decide how hot, cold, wet, or windy it might be!

Date:

Astronomy

Oct. 18, 2012 Rise Set
Actual Time 7:19 AM EDT 6:22 PM EDT
Civil Twilight 6:52 AM EDT 6:49 PM EDT
Nautical Twilight 6:21 AM EDT 7:20 PM EDT
Astronomical Twilight 5:50 AM EDT 7:51 PM EDT
Moon 10:58 AM EDT (10/18) 8:55 PM EDT (10/18)
Length of Visible Light 11h 57m
Length of Day
11h 02m
Waxing Crescent, 14% of the Moon is Illuminated
Oct 18
Waxing Crescent
Oct 21
First Quarter
Oct 29
Full
Nov 6
Last Quarter
Nov 13
New

Hourly Weather History & Observations

Time (EDT) Temp. Dew Point Humidity Pressure Visibility Wind Dir Wind Speed Gust Speed Precip Events Conditions
12:54 AM 59.0 °F 52.0 °F 78% 29.95 in - North - - N/A   Unknown
1:54 AM 57.9 °F 52.0 °F 81% 29.94 in - North - - N/A   Unknown
2:54 AM 57.0 °F 52.0 °F 83% 29.94 in - North - - N/A   Unknown
3:54 AM 57.0 °F 51.1 °F 81% 29.93 in - North - - N/A   Unknown
4:54 AM 55.9 °F 51.1 °F 84% 29.95 in - North - - N/A   Unknown
5:54 AM 55.9 °F 50.0 °F 80% 29.96 in - North - - N/A   Unknown
6:54 AM 55.9 °F 50.0 °F 80% 29.96 in - North - - N/A   Unknown
7:54 AM 55.9 °F 51.1 °F 84% 29.96 in - North - - N/A   Unknown
8:54 AM 61.0 °F 52.0 °F 72% 29.97 in - North - - N/A   Unknown
9:54 AM 64.0 °F 54.0 °F 70% 29.97 in - North - - N/A   Unknown
10:54 AM 68.0 °F 51.1 °F 55% 29.97 in - North - - N/A   Unknown
11:54 AM 70.0 °F 52.0 °F 53% 29.97 in - North - - N/A   Unknown
12:54 PM 68.0 °F 52.0 °F 56% 29.92 in - North - - N/A   Unknown
1:54 PM 69.1 °F 51.1 °F 53% 29.90 in - North - - N/A   Unknown
2:54 PM 72.0 °F 53.1 °F 51% 29.88 in - North - - N/A   Unknown
3:54 PM 71.1 °F 51.1 °F 49% 29.89 in - North - - N/A   Unknown
4:54 PM 71.1 °F 52.0 °F 51% 29.87 in - North - - N/A   Unknown
5:54 PM 70.0 °F 53.1 °F 55% 29.88 in - North - - N/A   Unknown
6:54 PM 69.1 °F 52.0 °F 54% 29.88 in - North - - N/A   Unknown
7:54 PM 68.0 °F 54.0 °F 61% 29.88 in - North - - N/A   Unknown
8:54 PM 68.0 °F 55.0 °F 63% 29.86 in - North - - N/A   Unknown
9:54 PM 66.9 °F 57.0 °F 70% 29.83 in - North - - N/A   Unknown
10:54 PM 66.9 °F 57.9 °F 73% 29.83 in - North - - N/A   Unknown
11:54 PM 66.9 °F 59.0 °F 76% 29.82 in - North - - N/A   Unknown